| time (UTC) | temp F | wind direction | speed MPH | gust MPH | rain 1hr in | rain 24hr in | rain mn in | humidity % | barometer mb |
| 20260505181617 | 56 | 230 | 2.0 | 6.0 | 0.00 | 0.00 | 0.00 | 84 | 1016.8 |
| 20260505181123 | 56 | 184 | 3.0 | 8.0 | 0.00 | 0.00 | 0.00 | 85 | 1016.7 |
| 20260505181118 | 56 | 171 | 3.0 | 6.0 | 0.00 | 0.00 | 0.00 | 84 | 1016.8 |
| 20260505180116 | 55 | 232 | 3.0 | 8.0 | 0.00 | 0.00 | 0.00 | 84 | 1016.7 |
| 20260505175617 | 55 | 220 | 2.0 | 7.0 | 0.00 | 0.00 | 0.00 | 84 | 1016.7 |
| 20260505175116 | 55 | 275 | 2.0 | 5.0 | 0.00 | 0.00 | 0.00 | 84 | 1016.7 |
| 20260505174616 | 55 | 268 | 2.0 | 5.0 | 0.00 | 0.00 | 0.00 | 85 | 1016.7 |
| 20260505174116 | 55 | 159 | 1.0 | 5.0 | 0.00 | 0.00 | 0.00 | 84 | 1016.7 |
| 20260505173621 | 55 | 235 | 3.0 | 6.0 | 0.00 | 0.00 | 0.00 | 84 | 1016.7 |
| 20260505173617 | 55 | 278 | 3.0 | 6.0 | 0.00 | 0.00 | 0.00 | 85 | 1016.8 |
| 20260505172614 | 55 | 207 | 2.0 | 6.0 | 0.00 | 0.00 | 0.00 | 85 | 1016.7 |
| 20260505172114 | 55 | 252 | 2.0 | 6.0 | 0.00 | 0.00 | 0.00 | 85 | 1016.6 |
| 20260505171615 | 55 | 247 | 2.0 | 6.0 | 0.00 | 0.00 | 0.00 | 85 | 1016.4 |
| 20260505171112 | 55 | 284 | 3.0 | 6.0 | 0.00 | 0.00 | 0.00 | 85 | 1016.6 |
| 20260505170613 | 55 | 237 | 1.0 | 5.0 | 0.00 | 0.00 | 0.00 | 85 | 1016.4 |
| 20260505170118 | 55 | 212 | 2.0 | 6.0 | 0.00 | 0.00 | 0.00 | 86 | 1016.4 |
| 20260505170112 | 55 | 286 | 2.0 | 6.0 | 0.00 | 0.00 | 0.00 | 85 | 1016.4 |
| 20260505165110 | 55 | 251 | 3.0 | 5.0 | 0.00 | 0.00 | 0.00 | 86 | 1016.3 |
| 20260505164610 | 54 | 221 | 3.0 | 5.0 | 0.00 | 0.00 | 0.00 | 85 | 1016.3 |
| 20260505164233 | 54 | 254 | 1.0 | 6.0 | 0.00 | 0.00 | 0.00 | 87 | 1016.2 |
| 20260505164115 | 54 | 169 | 1.0 | 5.0 | 0.00 | 0.00 | 0.00 | 86 | 1016.2 |
| 20260505164110 | 55 | 231 | 2.0 | 5.0 | 0.00 | 0.00 | 0.00 | 86 | 1016.3 |
| 20260505163213 | 54 | 241 | 0.0 | 3.0 | 0.00 | 0.00 | 0.00 | 87 | 1016.2 |
| 20260505162110 | 54 | 299 | 1.0 | 4.0 | 0.00 | 0.00 | 0.00 | 87 | 1016.2 |
| 20260505162106 | 54 | 285 | 1.0 | 6.0 | 0.00 | 0.00 | 0.00 | 87 | 1016.2 |
| 20260505161107 | 54 | 271 | 1.0 | 5.0 | 0.00 | 0.00 | 0.00 | 88 | 1016.1 |
| 20260505160609 | 54 | 195 | 1.0 | 6.0 | 0.00 | 0.00 | 0.00 | 88 | 1016.2 |
| 20260505160603 | 54 | 271 | 1.0 | 6.0 | 0.00 | 0.00 | 0.00 | 88 | 1016.1 |
| 20260505153059 | 53 | 273 | 1.0 | 4.0 | 0.00 | 0.00 | 0.00 | 90 | 1016.0 |
| 20260505152600 | 53 | 245 | 1.0 | 4.0 | 0.00 | 0.00 | 0.00 | 90 | 1016.1 |
| 20260505152101 | 53 | 288 | 0.0 | 3.0 | 0.00 | 0.00 | 0.00 | 90 | 1016.1 |
| 20260505151605 | 52 | 252 | 1.0 | 7.0 | 0.00 | 0.00 | 0.00 | 90 | 1016.1 |
| 20260505151559 | 53 | 261 | 0.0 | 4.0 | 0.00 | 0.00 | 0.00 | 90 | 1016.0 |
| 20260505151221 | 52 | 251 | 1.0 | 7.0 | 0.00 | 0.00 | 0.00 | 89 | 1016.0 |
| 20260505140554 | 52 | 231 | 0.0 | 4.0 | 0.00 | 0.00 | 0.00 | 90 | 1015.4 |
| 20260505124551 | 52 | 237 | 2.0 | 5.0 | 0.00 | 0.00 | 0.00 | 90 | 1015.1 |
| 20260505124057 | 52 | 208 | 2.0 | 4.0 | 0.00 | 0.00 | 0.00 | 89 | 1015.0 |
| 20260505124051 | 52 | 243 | 2.0 | 5.0 | 0.00 | 0.00 | 0.00 | 90 | 1014.9 |
| 20260505123052 | 52 | 252 | 2.0 | 5.0 | 0.00 | 0.00 | 0.00 | 89 | 1015.0 |
| 20260505122551 | 52 | 243 | 1.0 | 5.0 | 0.00 | 0.00 | 0.00 | 89 | 1015.0 |
| 20260505122048 | 52 | 223 | 0.0 | 3.0 | 0.00 | 0.00 | 0.00 | 89 | 1015.0 |
| 20260505121548 | 52 | 257 | 1.0 | 3.0 | 0.00 | 0.00 | 0.00 | 89 | 1015.0 |
| 20260505121047 | 52 | 259 | 1.0 | 4.0 | 0.00 | 0.00 | 0.00 | 89 | 1014.9 |
| 20260505120547 | 52 | 242 | 2.0 | 4.0 | 0.00 | 0.00 | 0.00 | 89 | 1014.9 |
| 20260505120051 | 52 | 240 | 1.0 | 3.0 | 0.00 | 0.00 | 0.00 | 89 | 1014.8 |
| 20260505120046 | 52 | 220 | 1.0 | 4.0 | 0.00 | 0.00 | 0.00 | 89 | 1014.8 |
| 20260505115043 | 52 | 265 | 1.0 | 4.0 | 0.00 | 0.00 | 0.00 | 89 | 1014.9 |
| 20260505114544 | 52 | 267 | 1.0 | 4.0 | 0.00 | 0.00 | 0.00 | 89 | 1014.8 |
| 20260505114049 | 52 | 259 | 1.0 | 4.0 | 0.00 | 0.00 | 0.00 | 88 | 1014.9 |
| 20260505114045 | 52 | 267 | 1.0 | 4.0 | 0.00 | 0.00 | 0.00 | 89 | 1014.8 |
| 20260505113049 | 52 | 231 | 1.0 | 3.0 | 0.00 | 0.00 | 0.00 | 89 | 1014.8 |
| 20260505113044 | 52 | 257 | 1.0 | 3.0 | 0.00 | 0.00 | 0.00 | 89 | 1014.8 |
| 20260505112044 | 52 | 252 | 1.0 | 3.0 | 0.00 | 0.00 | 0.00 | 88 | 1014.8 |
| 20260505111545 | 52 | 253 | 1.0 | 3.0 | 0.00 | 0.00 | 0.00 | 88 | 1014.9 |
| 20260505111043 | 52 | 231 | 1.0 | 3.0 | 0.00 | 0.00 | 0.00 | 88 | 1014.8 |
| 20260505110543 | 52 | 266 | 1.0 | 3.0 | 0.00 | 0.00 | 0.00 | 88 | 1014.7 |
| 20260505102037 | 52 | 226 | 1.0 | 5.0 | 0.00 | 0.00 | 0.00 | 88 | 1014.4 |
| 20260505101539 | 52 | 244 | 0.0 | 2.0 | 0.00 | 0.00 | 0.00 | 88 | 1014.4 |
| 20260505101036 | 52 | 267 | 1.0 | 7.0 | 0.00 | 0.00 | 0.00 | 89 | 1014.3 |
| 20260505100536 | 52 | 244 | 2.0 | 7.0 | 0.00 | 0.00 | 0.00 | 88 | 1014.4 |
| 20260505100036 | 52 | 238 | 1.0 | 5.0 | 0.00 | 0.00 | 0.00 | 88 | 1014.4 |
| 20260505095536 | 52 | 260 | 2.0 | 5.0 | 0.00 | 0.00 | 0.00 | 88 | 1014.4 |
| 20260505095037 | 52 | 215 | 1.0 | 5.0 | 0.00 | 0.00 | 0.00 | 88 | 1014.4 |
| 20260505094537 | 52 | 257 | 1.0 | 4.0 | 0.00 | 0.00 | 0.00 | 88 | 1014.3 |
| 20260505094041 | 52 | 257 | 0.0 | 3.0 | 0.00 | 0.00 | 0.00 | 89 | 1014.3 |
| 20260505094037 | 52 | 236 | 1.0 | 4.0 | 0.00 | 0.00 | 0.00 | 88 | 1014.3 |
| 20260505093151 | 52 | 238 | 1.0 | 4.0 | 0.00 | 0.00 | 0.00 | 88 | 1014.2 |
| 20260505093037 | 52 | 260 | 1.0 | 4.0 | 0.00 | 0.00 | 0.00 | 88 | 1014.2 |
| 20260505093032 | 52 | 259 | 0.0 | 3.0 | 0.00 | 0.00 | 0.00 | 89 | 1014.3 |
| 20260505091533 | 52 | 264 | 1.0 | 6.0 | 0.00 | 0.00 | 0.00 | 88 | 1014.1 |
| 20260505091037 | 52 | 260 | 1.0 | 6.0 | 0.00 | 0.00 | 0.00 | 88 | 1014.0 |
| 20260505091033 | 52 | 252 | 1.0 | 6.0 | 0.00 | 0.00 | 0.00 | 88 | 1014.1 |
| 20260505090529 | 52 | 246 | 2.0 | 6.0 | 0.00 | 0.00 | 0.00 | 88 | 1014.0 |
| 20260505085531 | 52 | 261 | 0.0 | 3.0 | 0.00 | 0.00 | 0.00 | 88 | 1014.0 |
| 20260505085029 | 52 | 287 | 1.0 | 8.0 | 0.00 | 0.00 | 0.00 | 87 | 1014.0 |
| 20260505084527 | 53 | 250 | 2.0 | 8.0 | 0.00 | 0.00 | 0.00 | 87 | 1014.0 |
| 20260505084027 | 53 | 278 | 2.0 | 8.0 | 0.00 | 0.00 | 0.00 | 87 | 1013.9 |
| 20260505083533 | 53 | 245 | 3.0 | 11.0 | 0.00 | 0.00 | 0.00 | 86 | 1014.0 |
| 20260505083527 | 53 | 240 | 3.0 | 11.0 | 0.00 | 0.00 | 0.00 | 86 | 1014.0 |
| 20260505082528 | 53 | 250 | 2.0 | 7.0 | 0.00 | 0.00 | 0.00 | 86 | 1013.9 |
| 20260505082028 | 53 | 241 | 1.0 | 7.0 | 0.00 | 0.00 | 0.00 | 85 | 1013.8 |
| 20260505081527 | 53 | 266 | 1.0 | 6.0 | 0.00 | 0.00 | 0.00 | 85 | 1013.8 |
| 20260505081031 | 53 | 281 | 1.0 | 5.0 | 0.00 | 0.00 | 0.00 | 85 | 1013.8 |
| 20260505081025 | 53 | 264 | 1.0 | 5.0 | 0.00 | 0.00 | 0.00 | 85 | 1013.8 |
| 20260505080025 | 54 | 285 | 1.0 | 5.0 | 0.00 | 0.00 | 0.00 | 85 | 1013.7 |
| 20260505075527 | 54 | 263 | 1.0 | 3.0 | 0.00 | 0.00 | 0.00 | 85 | 1013.8 |
| 20260505075027 | 54 | 249 | 1.0 | 7.0 | 0.00 | 0.00 | 0.00 | 84 | 1013.7 |
| 20260505074525 | 54 | 271 | 2.0 | 8.0 | 0.00 | 0.00 | 0.00 | 84 | 1013.6 |
| 20260505074026 | 54 | 245 | 3.0 | 10.0 | 0.00 | 0.00 | 0.00 | 84 | 1013.6 |
| 20260505073527 | 54 | 230 | 3.0 | 10.0 | 0.00 | 0.00 | 0.00 | 84 | 1013.5 |
| 20260505073027 | 54 | 264 | 3.0 | 9.0 | 0.00 | 0.00 | 0.00 | 84 | 1013.4 |
| 20260505072525 | 54 | 256 | 3.0 | 9.0 | 0.00 | 0.00 | 0.00 | 83 | 1013.3 |
| 20260505072029 | 55 | 251 | 3.0 | 8.0 | 0.00 | 0.00 | 0.00 | 83 | 1013.2 |
| 20260505072024 | 55 | 240 | 3.0 | 9.0 | 0.00 | 0.00 | 0.00 | 83 | 1013.3 |
| 20260505071523 | 55 | 219 | 3.0 | 9.0 | 0.00 | 0.00 | 0.00 | 83 | 1013.2 |
| 20260505071147 | 55 | 238 | 2.0 | 7.0 | 0.00 | 0.00 | 0.00 | 82 | 1013.1 |
| 20260505070025 | 55 | 278 | 2.0 | 8.0 | 0.00 | 0.00 | 0.00 | 82 | 1013.1 |
| 20260505065522 | 56 | 259 | 3.0 | 8.0 | 0.00 | 0.00 | 0.00 | 82 | 1013.1 |
| 20260505065021 | 56 | 234 | 3.0 | 8.0 | 0.00 | 0.00 | 0.00 | 83 | 1013.0 |
| 20260505064523 | 56 | 193 | 2.0 | 6.0 | 0.00 | 0.00 | 0.00 | 82 | 1012.9 |
| 20260505064027 | 56 | 279 | 1.0 | 7.0 | 0.00 | 0.00 | 0.00 | 82 | 1012.8 |
| 20260505064022 | 56 | 238 | 2.0 | 7.0 | 0.00 | 0.00 | 0.00 | 82 | 1012.8 |
| 20260505063029 | 57 | 261 | 2.0 | 6.0 | 0.00 | 0.00 | 0.00 | 81 | 1012.8 |
| 20260505063024 | 57 | 225 | 2.0 | 6.0 | 0.00 | 0.00 | 0.00 | 81 | 1012.7 |
| 20260505062022 | 57 | 243 | 2.0 | 7.0 | 0.00 | 0.00 | 0.00 | 80 | 1012.7 |
| 20260505061523 | 58 | 230 | 2.0 | 7.0 | 0.00 | 0.00 | 0.00 | 80 | 1012.8 |
| 20260505061022 | 58 | 247 | 3.0 | 7.0 | 0.00 | 0.00 | 0.00 | 79 | 1012.7 |
| 20260505060523 | 58 | 252 | 4.0 | 8.0 | 0.00 | 0.00 | 0.00 | 79 | 1012.6 |
| 20260505060023 | 58 | 256 | 3.0 | 9.0 | 0.00 | 0.00 | 0.00 | 78 | 1012.6 |
| 20260505055522 | 59 | 240 | 3.0 | 11.0 | 0.00 | 0.00 | 0.00 | 78 | 1012.6 |
| 20260505055023 | 59 | 259 | 2.0 | 11.0 | 0.00 | 0.00 | 0.00 | 77 | 1012.6 |
| 20260505054523 | 59 | 243 | 3.0 | 7.0 | 0.00 | 0.00 | 0.00 | 76 | 1012.5 |
| 20260505054023 | 60 | 269 | 3.0 | 7.0 | 0.00 | 0.00 | 0.00 | 76 | 1012.5 |
| 20260505053522 | 60 | 254 | 3.0 | 7.0 | 0.00 | 0.00 | 0.00 | 76 | 1012.5 |
| 20260505053020 | 60 | 242 | 2.0 | 6.0 | 0.00 | 0.00 | 0.00 | 76 | 1012.4 |
| 20260505052521 | 61 | 246 | 1.0 | 6.0 | 0.00 | 0.00 | 0.00 | 76 | 1012.5 |
| 20260505052020 | 61 | 250 | 0.0 | 4.0 | 0.00 | 0.00 | 0.00 | 76 | 1012.5 |
| 20260505051520 | 62 | 266 | 0.0 | 3.0 | 0.00 | 0.00 | 0.00 | 76 | 1012.4 |
| 20260505051021 | 62 | 264 | 1.0 | 3.0 | 0.00 | 0.00 | 0.00 | 76 | 1012.3 |
| 20260505050520 | 62 | 258 | 1.0 | 3.0 | 0.00 | 0.00 | 0.00 | 75 | 1012.3 |
| 20260505041521 | 64 | 250 | 2.0 | 7.0 | 0.00 | 0.00 | 0.00 | 75 | 1011.6 |
| 20260505041021 | 65 | 232 | 1.0 | 7.0 | 0.00 | 0.00 | 0.00 | 74 | 1011.4 |
| 20260505040520 | 65 | 244 | 1.0 | 8.0 | 0.00 | 0.00 | 0.00 | 74 | 1011.3 |
| 20260505040025 | 65 | 332 | 4.0 | 11.0 | 0.00 | 0.00 | 0.00 | 74 | 1011.2 |
| 20260505040020 | 65 | 229 | 2.0 | 8.0 | 0.00 | 0.00 | 0.00 | 74 | 1011.2 |
| 20260505035019 | 65 | 223 | 4.0 | 12.0 | 0.00 | 0.00 | 0.00 | 74 | 1011.1 |
| 20260505034518 | 65 | 245 | 3.0 | 12.0 | 0.00 | 0.00 | 0.00 | 74 | 1011.0 |
| 20260505034018 | 66 | 243 | 2.0 | 10.0 | 0.00 | 0.00 | 0.00 | 74 | 1010.9 |
| 20260505033518 | 66 | 258 | 2.0 | 6.0 | 0.00 | 0.00 | 0.00 | 74 | 1010.8 |
| 20260505033018 | 66 | 240 | 2.0 | 7.0 | 0.00 | 0.00 | 0.00 | 74 | 1010.8 |
| 20260505032518 | 66 | 217 | 2.0 | 10.0 | 0.00 | 0.00 | 0.00 | 74 | 1010.7 |
| 20260505032019 | 66 | 237 | 3.0 | 10.0 | 0.00 | 0.00 | 0.00 | 73 | 1010.7 |
| 20260505031517 | 67 | 213 | 3.0 | 8.0 | 0.00 | 0.00 | 0.00 | 73 | 1010.6 |
| 20260505031019 | 67 | 246 | 3.0 | 9.0 | 0.00 | 0.00 | 0.00 | 73 | 1010.6 |
| 20260505030521 | 67 | 250 | 2.0 | 7.0 | 0.00 | 0.00 | 0.00 | 72 | 1010.5 |
| 20260505030516 | 67 | 254 | 3.0 | 9.0 | 0.00 | 0.00 | 0.00 | 72 | 1010.6 |
| 20260505025515 | 67 | 263 | 2.0 | 8.0 | 0.00 | 0.00 | 0.00 | 71 | 1010.5 |
| 20260505025018 | 68 | 239 | 2.0 | 8.0 | 0.00 | 0.00 | 0.00 | 71 | 1010.5 |
| 20260505024517 | 68 | 240 | 2.0 | 8.0 | 0.00 | 0.00 | 0.00 | 70 | 1010.5 |
| 20260505024018 | 68 | 252 | 3.0 | 8.0 | 0.00 | 0.00 | 0.00 | 70 | 1010.5 |
| 20260505023517 | 69 | 272 | 3.0 | 8.0 | 0.00 | 0.00 | 0.00 | 69 | 1010.5 |
| 20260505023018 | 69 | 243 | 3.0 | 8.0 | 0.00 | 0.00 | 0.00 | 68 | 1010.5 |
| 20260505022516 | 70 | 251 | 4.0 | 10.0 | 0.00 | 0.00 | 0.00 | 67 | 1010.4 |
| 20260505022016 | 70 | 251 | 4.0 | 10.0 | 0.00 | 0.00 | 0.00 | 66 | 1010.5 |
| 20260505021519 | 71 | 226 | 3.0 | 9.0 | 0.00 | 0.00 | 0.00 | 65 | 1010.5 |
| 20260505021513 | 70 | 247 | 3.0 | 9.0 | 0.00 | 0.00 | 0.00 | 65 | 1010.5 |
| 20260505020514 | 70 | 247 | 3.0 | 9.0 | 0.00 | 0.00 | 0.00 | 65 | 1010.5 |
| 20260505020013 | 71 | 309 | 3.0 | 9.0 | 0.00 | 0.00 | 0.00 | 65 | 1010.5 |
| 20260505015515 | 71 | 283 | 3.0 | 9.0 | 0.00 | 0.00 | 0.00 | 65 | 1010.5 |
| 20260505015013 | 71 | 230 | 3.0 | 11.0 | 0.00 | 0.00 | 0.00 | 64 | 1010.5 |
| 20260505014520 | 71 | 271 | 4.0 | 10.0 | 0.00 | 0.00 | 0.00 | 64 | 1010.5 |
| 20260505014515 | 71 | 207 | 3.0 | 11.0 | 0.00 | 0.00 | 0.00 | 63 | 1010.5 |
| 20260505014138 | 71 | 259 | 3.0 | 10.0 | 0.00 | 0.00 | 0.00 | 63 | 1010.6 |
| 20260505013013 | 72 | 259 | 2.0 | 6.0 | 0.00 | 0.00 | 0.00 | 63 | 1010.7 |
| 20260505012512 | 71 | 254 | 4.0 | 10.0 | 0.00 | 0.00 | 0.00 | 64 | 1010.8 |
| 20260505012012 | 71 | 224 | 5.0 | 12.0 | 0.00 | 0.00 | 0.00 | 63 | 1010.8 |
| 20260505011519 | 71 | 173 | 3.0 | 9.0 | 0.00 | 0.00 | 0.00 | 63 | 1010.8 |
| 20260505011514 | 71 | 232 | 4.0 | 12.0 | 0.00 | 0.00 | 0.00 | 63 | 1010.7 |
| 20260505010513 | 72 | 238 | 4.0 | 9.0 | 0.00 | 0.00 | 0.00 | 62 | 1010.8 |
| 20260505010012 | 71 | 266 | 3.0 | 9.0 | 0.00 | 0.00 | 0.00 | 63 | 1010.8 |
| 20260505005512 | 71 | 149 | 3.0 | 11.0 | 0.00 | 0.00 | 0.00 | 63 | 1010.8 |
| 20260505005012 | 71 | 281 | 4.0 | 11.0 | 0.00 | 0.00 | 0.00 | 63 | 1010.9 |
| 20260505004509 | 71 | 254 | 5.0 | 14.0 | 0.00 | 0.00 | 0.00 | 64 | 1010.9 |
| 20260505004010 | 71 | 229 | 6.0 | 14.0 | 0.00 | 0.00 | 0.00 | 64 | 1010.9 |
| 20260505003510 | 71 | 202 | 6.0 | 12.0 | 0.00 | 0.00 | 0.00 | 63 | 1011.0 |
| 20260505003010 | 71 | 222 | 6.0 | 14.0 | 0.00 | 0.00 | 0.00 | 63 | 1011.0 |
| 20260505002510 | 71 | 188 | 6.0 | 14.0 | 0.00 | 0.00 | 0.00 | 62 | 1011.0 |
| 20260505002010 | 71 | 164 | 5.0 | 12.0 | 0.00 | 0.00 | 0.00 | 63 | 1011.0 |
| 20260505001511 | 71 | 255 | 4.0 | 9.0 | 0.00 | 0.00 | 0.00 | 62 | 1011.0 |
| 20260505001010 | 71 | 207 | 2.0 | 9.0 | 0.00 | 0.00 | 0.00 | 62 | 1011.0 |
| 20260505000510 | 71 | 289 | 2.0 | 8.0 | 0.00 | 0.00 | 0.00 | 62 | 1011.1 |
| 20260505000011 | 71 | 260 | 3.0 | 8.0 | 0.00 | 0.00 | 0.00 | 62 | 1011.1 |
| 20260504235509 | 71 | 197 | 6.0 | 15.0 | 0.00 | 0.00 | 0.00 | 63 | 1011.1 |
| 20260504235009 | 71 | 212 | 6.0 | 15.0 | 0.00 | 0.00 | 0.00 | 63 | 1011.1 |
| 20260504234513 | 71 | 226 | 4.0 | 10.0 | 0.00 | 0.00 | 0.00 | 63 | 1011.1 |
| 20260504234508 | 71 | 155 | 4.0 | 12.0 | 0.00 | 0.00 | 0.00 | 61 | 1011.1 |
| 20260504233511 | 71 | 255 | 6.0 | 12.0 | 0.00 | 0.00 | 0.00 | 62 | 1011.2 |
| 20260504233008 | 70 | 226 | 7.0 | 12.0 | 0.00 | 0.00 | 0.00 | 62 | 1011.2 |
| 20260504232513 | 70 | 169 | 4.0 | 11.0 | 0.00 | 0.00 | 0.00 | 62 | 1011.3 |
| 20260504232509 | 70 | 169 | 6.0 | 12.0 | 0.00 | 0.00 | 0.00 | 62 | 1011.2 |
| 20260504232130 | 71 | 207 | 3.0 | 10.0 | 0.00 | 0.00 | 0.00 | 62 | 1011.3 |
| 20260504231009 | 70 | 170 | 4.0 | 13.0 | 0.00 | 0.00 | 0.00 | 63 | 1011.3 |
| 20260504230511 | 70 | 214 | 3.0 | 13.0 | 0.00 | 0.00 | 0.00 | 63 | 1011.4 |
| 20260504230007 | 70 | 257 | 4.0 | 9.0 | 0.00 | 0.00 | 0.00 | 64 | 1011.6 |
| 20260504225506 | 69 | 249 | 5.0 | 9.0 | 0.00 | 0.00 | 0.00 | 63 | 1011.6 |
| 20260504225012 | 69 | 248 | 5.0 | 10.0 | 0.00 | 0.00 | 0.00 | 62 | 1011.7 |
| 20260504225006 | 69 | 164 | 5.0 | 10.0 | 0.00 | 0.00 | 0.00 | 62 | 1011.7 |
| 20260504224006 | 69 | 174 | 4.0 | 10.0 | 0.00 | 0.00 | 0.00 | 62 | 1011.7 |
| 20260504223507 | 69 | 247 | 4.0 | 9.0 | 0.00 | 0.00 | 0.00 | 63 | 1011.8 |
| 20260504223011 | 68 | 284 | 2.0 | 7.0 | 0.00 | 0.00 | 0.00 | 64 | 1011.9 |
| 20260504223006 | 69 | 207 | 2.0 | 8.0 | 0.00 | 0.00 | 0.00 | 62 | 1011.8 |
| 20260504222007 | 68 | 246 | 3.0 | 7.0 | 0.00 | 0.00 | 0.00 | 65 | 1011.9 |
| 20260504221504 | 68 | 162 | 4.0 | 10.0 | 0.00 | 0.00 | 0.00 | 64 | 1012.0 |
| 20260504221005 | 68 | 264 | 4.0 | 12.0 | 0.00 | 0.00 | 0.00 | 64 | 1012.0 |
| 20260504220504 | 67 | 229 | 4.0 | 12.0 | 0.00 | 0.00 | 0.00 | 65 | 1012.0 |
| 20260504220005 | 67 | 196 | 4.0 | 10.0 | 0.00 | 0.00 | 0.00 | 65 | 1012.1 |
| 20260504215508 | 68 | 212 | 4.0 | 10.0 | 0.00 | 0.00 | 0.00 | 64 | 1012.3 |
| 20260504215503 | 67 | 202 | 4.0 | 10.0 | 0.00 | 0.00 | 0.00 | 67 | 1012.3 |
| 20260504215124 | 67 | 244 | 4.0 | 11.0 | 0.00 | 0.00 | 0.00 | 66 | 1012.3 |
| 20260504214004 | 66 | 248 | 4.0 | 11.0 | 0.00 | 0.00 | 0.00 | 67 | 1012.4 |
| 20260504213502 | 66 | 276 | 4.0 | 10.0 | 0.00 | 0.00 | 0.00 | 67 | 1012.4 |
| 20260504213003 | 66 | 226 | 4.0 | 9.0 | 0.00 | 0.00 | 0.00 | 68 | 1012.5 |
| 20260504212500 | 66 | 240 | 4.0 | 10.0 | 0.00 | 0.00 | 0.00 | 68 | 1012.5 |
| 20260504212000 | 66 | 240 | 3.0 | 12.0 | 0.00 | 0.00 | 0.00 | 69 | 1012.6 |
| 20260504211501 | 65 | 236 | 4.0 | 12.0 | 0.00 | 0.00 | 0.00 | 68 | 1012.6 |
| 20260504211001 | 64 | 250 | 4.0 | 9.0 | 0.00 | 0.00 | 0.00 | 68 | 1012.7 |
| 20260504210459 | 65 | 247 | 4.0 | 10.0 | 0.00 | 0.00 | 0.00 | 68 | 1012.8 |
| 20260504210006 | 64 | 240 | 3.0 | 9.0 | 0.00 | 0.00 | 0.00 | 71 | 1013.0 |
| 20260504210000 | 64 | 223 | 4.0 | 10.0 | 0.00 | 0.00 | 0.00 | 69 | 1012.9 |
| 20260504205000 | 64 | 230 | 3.0 | 9.0 | 0.00 | 0.00 | 0.00 | 71 | 1013.1 |
| 20260504204501 | 64 | 299 | 4.0 | 10.0 | 0.00 | 0.00 | 0.00 | 70 | 1013.1 |
| 20260504203958 | 63 | 272 | 5.0 | 11.0 | 0.00 | 0.00 | 0.00 | 72 | 1013.1 |
| 20260504203459 | 63 | 150 | 5.0 | 11.0 | 0.00 | 0.00 | 0.00 | 70 | 1013.1 |
| 20260504202958 | 63 | 234 | 4.0 | 11.0 | 0.00 | 0.00 | 0.00 | 72 | 1013.1 |
| 20260504202457 | 63 | 145 | 4.0 | 11.0 | 0.00 | 0.00 | 0.00 | 72 | 1013.2 |
| 20260504201958 | 63 | 283 | 4.0 | 11.0 | 0.00 | 0.00 | 0.00 | 73 | 1013.2 |
| 20260504201457 | 62 | 205 | 4.0 | 9.0 | 0.00 | 0.00 | 0.00 | 74 | 1013.4 |
| 20260504201004 | 62 | 191 | 5.0 | 15.0 | 0.00 | 0.00 | 0.00 | 73 | 1013.4 |
| 20260504200958 | 62 | 278 | 5.0 | 15.0 | 0.00 | 0.00 | 0.00 | 73 | 1013.4 |
| 20260504195956 | 62 | 163 | 4.0 | 13.0 | 0.00 | 0.00 | 0.00 | 73 | 1013.5 |
| 20260504195501 | 61 | 298 | 3.0 | 9.0 | 0.00 | 0.00 | 0.00 | 75 | 1013.5 |
| 20260504195457 | 62 | 271 | 3.0 | 9.0 | 0.00 | 0.00 | 0.00 | 74 | 1013.5 |
| 20260504194454 | 61 | 238 | 4.0 | 10.0 | 0.00 | 0.00 | 0.00 | 75 | 1013.5 |
| 20260504193952 | 60 | 231 | 4.0 | 10.0 | 0.00 | 0.00 | 0.00 | 75 | 1013.6 |
| 20260504193457 | 60 | 216 | 7.0 | 14.0 | 0.00 | 0.00 | 0.00 | 76 | 1013.5 |
| 20260504193452 | 60 | 266 | 6.0 | 14.0 | 0.00 | 0.00 | 0.00 | 74 | 1013.6 |
| 20260504192457 | 60 | 250 | 5.0 | 14.0 | 0.00 | 0.00 | 0.00 | 76 | 1013.7 |
| 20260504192452 | 60 | 207 | 6.0 | 14.0 | 0.00 | 0.00 | 0.00 | 77 | 1013.6 |
| 20260504191453 | 60 | 255 | 3.0 | 10.0 | 0.00 | 0.00 | 0.00 | 77 | 1013.6 |
| 20260504190950 | 59 | 242 | 5.0 | 12.0 | 0.00 | 0.00 | 0.00 | 79 | 1013.7 |
| 20260504190451 | 59 | 186 | 6.0 | 12.0 | 0.00 | 0.00 | 0.00 | 77 | 1013.7 |
| 20260504185952 | 59 | 162 | 6.0 | 12.0 | 0.00 | 0.00 | 0.00 | 77 | 1013.7 |
| 20260504185455 | 59 | 212 | 5.0 | 12.0 | 0.00 | 0.00 | 0.00 | 79 | 1013.8 |
| 20260504185450 | 59 | 119 | 6.0 | 12.0 | 0.00 | 0.00 | 0.00 | 78 | 1013.7 |
| 20260504184450 | 58 | 183 | 5.0 | 12.0 | 0.00 | 0.00 | 0.00 | 79 | 1013.9 |
| 20260504183951 | 58 | 290 | 5.0 | 12.0 | 0.00 | 0.00 | 0.00 | 79 | 1013.8 |
| 20260504183449 | 58 | 227 | 3.0 | 12.0 | 0.00 | 0.00 | 0.00 | 80 | 1013.8 |
| 20260504182950 | 58 | 226 | 3.0 | 10.0 | 0.00 | 0.00 | 0.00 | 80 | 1013.8 |
| 20260504182451 | 58 | 224 | 6.0 | 14.0 | 0.00 | 0.00 | 0.00 | 81 | 1013.7 |
| 20260504181949 | 57 | 186 | 6.0 | 14.0 | 0.00 | 0.00 | 0.00 | 80 | 1013.8 |